Kamloops,

6:56 PM PST on November 23, 2017 (GMT -0800)
Kamloops

Weather History for CYKA - March, 2013

Change the Weather History Date:

Friday, March 1, 2013

  Actual Average Record
Temperature  
Mean Temperature 47 °F -  
Max Temperature 60 °F 50 °F 60 °F (2013)
Min Temperature 34 °F 30 °F -18 °F (1997)
Degree Days  
Heating Degree Days 18    
Moisture  
Dew Point 35 °F    
Average Humidity 62    
Maximum Humidity 87    
Minimum Humidity 30    
Precipitation  
Precipitation 0.00 in 0.01 in - ()
Sea Level Pressure  
Sea Level Pressure 30.11 in    
Wind  
Wind Speed 7 mph ()    
Max Wind Speed 16 mph    
Max Gust Speed 21 mph    
Averages and records for this station are not official NWS values.
T = Trace of Precipitation, MM = Missing Value Source: Averaged Metar Reports

Daily Weather History Graph

Daily Weather History Graph

Search for Another Location

Airport or City:

Trip Planner

Search our weather history database for the weather conditions in past years. The results will help you decide how hot, cold, wet, or windy it might be!

Date:

Astronomy

Mar. 01, 2013 Rise Set
Actual Time 6:45 AM PST 5:43 PM PST
Civil Twilight 6:12 AM PST 6:16 PM PST
Nautical Twilight 5:34 AM PST 6:54 PM PST
Astronomical Twilight 4:56 AM PST 7:33 PM PST
Moon 10:59 PM PST (3/1) 8:03 AM PST (3/1)
Length of Visible Light 12h 04m
Length of Day
10h 58m
Waning Gibbous, 82% of the Moon is Illuminated
Mar 1
Waning Gibbous
Mar 4
Last Quarter
Mar 11
New
Mar 19
First Quarter
Mar 27
Full

Hourly Weather History & Observations

Time (PST) Temp. Windchill Dew Point Humidity Pressure Visibility Wind Dir Wind Speed Gust Speed Precip Events Conditions
12:00 AM 41.0 °F 34.3 °F 33.8 °F 76% 30.14 in 40.0 mi SE 11.5 mph 18.4 mph N/A   Mostly Cloudy
1:00 AM 41.0 °F 34.7 °F 33.8 °F 76% 30.14 in 40.0 mi SE 10.4 mph - N/A   Mostly Cloudy
2:00 AM 41.0 °F 34.3 °F 33.8 °F 76% 30.14 in 40.0 mi ESE 11.5 mph 18.4 mph N/A   Scattered Clouds
3:00 AM 41.0 °F 33.9 °F 33.8 °F 76% 30.13 in 40.0 mi ESE 12.7 mph 20.7 mph N/A   Mostly Cloudy
4:00 AM 41 °F - 35 °F 70% 30.12 in 37 mi ESE 10.4 mph - -   Scattered Clouds
5:00 AM 41.0 °F 37.1 °F 33.8 °F 76% 30.13 in 40.0 mi SE 5.8 mph - N/A   Mostly Cloudy
6:00 AM 39.2 °F 35.9 °F 33.8 °F 81% 30.14 in 40.0 mi WSW 4.6 mph - N/A   Mostly Cloudy
7:00 AM 37.4 °F - 33.8 °F 87% 30.14 in 40.0 mi NW 2.3 mph - N/A   Overcast
8:00 AM 41.0 °F 35.8 °F 35.6 °F 81% 30.14 in 40.0 mi ESE 8.1 mph 18.4 mph N/A   Mostly Cloudy
9:00 AM 44.6 °F 38.4 °F 23.0 °F 43% 30.13 in 40.0 mi ESE 12.7 mph - N/A   Mostly Cloudy
10:00 AM 45 °F - 37 °F 64% 30.12 in 37 mi South 6.9 mph - -   Mostly Cloudy
10:00 AM 44.6 °F 40.7 °F 37.4 °F 76% 30.12 in 40.0 mi South 6.9 mph - N/A   Mostly Cloudy
11:00 AM 50.0 °F - 37.4 °F 62% 30.11 in 40.0 mi ESE 8.1 mph - N/A   Mostly Cloudy
12:00 PM 53.6 °F - 39.2 °F 58% 30.08 in 40.0 mi Calm Calm - N/A   Mostly Cloudy
1:00 PM 53.6 °F - 39.2 °F 58% 30.10 in 40.0 mi NW 4.6 mph - N/A   Overcast
2:00 PM 55.4 °F - 39.2 °F 54% 30.08 in 40.0 mi ENE 4.6 mph - N/A   Overcast
3:00 PM 59.0 °F - 37.4 °F 45% 30.09 in 40.0 mi Calm Calm - N/A   Overcast
4:00 PM 60 °F - 37 °F 30% 30.10 in 37 mi West 13.8 mph - -   Overcast
4:00 PM 59.0 °F - 37.4 °F 45% 30.10 in 40.0 mi West 16.1 mph - N/A   Overcast
5:00 PM 57.2 °F - 35.6 °F 44% 30.09 in 40.0 mi ESE 10.4 mph - N/A   Overcast
6:00 PM 53.6 °F - 35.6 °F 51% 30.07 in 40.0 mi ESE 8.1 mph - N/A   Overcast
7:00 PM 53.6 °F - 35.6 °F 51% 30.10 in 40.0 mi Calm Calm - N/A   Overcast
8:00 PM 50.0 °F - 35.6 °F 58% 30.11 in 40.0 mi Calm Calm - N/A   Mostly Cloudy
9:00 PM 48.2 °F - 35.6 °F 62% 30.12 in 40.0 mi SE 2.3 mph - N/A   Mostly Cloudy
10:00 PM 48.2 °F - 35.6 °F 62% 30.11 in 40.0 mi Calm Calm - N/A   Mostly Cloudy
11:00 PM 50.0 °F - 35.6 °F 58% 30.12 in 40.0 mi East 5.8 mph - N/A   Scattered Clouds